Location: Unspecified
(0.0000°N, 0.0000°E)
Time: 11:30:52
(UTC+00:00)

Vanguard 2 - Pass Details

Date: 10 October 2022
Orbit: 553 x 2933 km, 32.9° (Epoch: 29 November)

Event Time Altitude Azimuth Distance (km) Brightness Sun altitude
Rises 21:34:58 0° 273° (W) 6,750 12.8 -56.4°
Reaches altitude 10° 21:41:04 10° 261° (W) 5,579 12.2 -57.9°
Maximum altitude 21:52:58 24° 214° (SW) 3,891 11.1 -60.8°
Enters shadow 21:54:27 24° 206° (SSW) 3,815 11.1 -61.1°
